Location: Santiago
(33.4378°S, 70.6505°W)
Time: 15:13:03
(UTC+00:00)

ISS - Pass Details

Date: 12 July 2025
Orbit: 413 x 417 km, 51.6° (Epoch: 13 July)

Event Time Altitude Azimuth Distance (km) Brightness Sun altitude
Rises 10:30:58 0° 346° (NNW) 2,349 0.1 -15.3°
Reaches altitude 10° 10:33:27 10° 5° (N) 1,495 -0.7 -14.8°
Maximum altitude 10:35:54 19° 52° (NE) 1,072 -0.7 -14.3°
Drops below altitude 10° 10:38:23 10° 99° (E) 1,509 0.1 -13.8°
Sets 10:40:53 0° 117° (ESE) 2,381 0.8 -13.3°
